| time (UTC) | temp C | wind direction | speed KPH | gust KPH | rain 1hr cm | rain 24hr cm | rain mn cm | humidity % | barometer mb |
| 20260504024557 | 13 | 360 | 1.6 | 6.4 | 0.00 | 0.00 | 0.00 | 51 | 1004.5 |
| 20260504024046 | 14 | 360 | 1.6 | 4.8 | 0.00 | 0.00 | 0.00 | 50 | 1004.5 |
| 20260504023547 | 14 | 360 | 1.6 | 6.4 | 0.00 | 0.00 | 0.00 | 50 | 1004.5 |
| 20260504023053 | 14 | 360 | 3.2 | 6.4 | 0.00 | 0.00 | 0.00 | 50 | 1004.5 |
| 20260504022544 | 14 | 360 | 3.2 | 6.4 | 0.00 | 0.00 | 0.00 | 50 | 1004.4 |
| 20260504022046 | 15 | 360 | 3.2 | 6.4 | 0.00 | 0.00 | 0.00 | 50 | 1004.3 |
| 20260504021552 | 15 | 360 | 4.8 | 6.4 | 0.00 | 0.00 | 0.00 | 50 | 1004.4 |
| 20260504021048 | 15 | 360 | 3.2 | 8.0 | 0.00 | 0.00 | 0.00 | 50 | 1004.2 |
| 20260504020548 | 15 | 360 | 4.8 | 8.0 | 0.00 | 0.00 | 0.00 | 50 | 1004.2 |
| 20260504020127 | 15 | 360 | 4.8 | 8.0 | 0.00 | 0.00 | 0.00 | 50 | 1004.2 |
| 20260504015548 | 15 | 360 | 4.8 | 8.0 | 0.00 | 0.00 | 0.00 | 49 | 1004.2 |
| 20260504015049 | 15 | 360 | 4.8 | 6.4 | 0.00 | 0.00 | 0.00 | 49 | 1004.1 |
| 20260504014603 | 15 | 360 | 3.2 | 6.4 | 0.00 | 0.00 | 0.00 | 48 | 1004.1 |
| 20260504014046 | 16 | 360 | 3.2 | 4.8 | 0.00 | 0.00 | 0.00 | 47 | 1004.0 |
| 20260504013547 | 16 | 360 | 1.6 | 4.8 | 0.00 | 0.00 | 0.00 | 46 | 1003.9 |
| 20260504013115 | 16 | 360 | 0.0 | 3.2 | 0.00 | 0.00 | 0.00 | 46 | 1003.9 |
| 20260504012548 | 17 | 360 | 1.6 | 3.2 | 0.00 | 0.00 | 0.00 | 45 | 1003.9 |
| 20260504012049 | 17 | 360 | 0.0 | 3.2 | 0.00 | 0.00 | 0.00 | 44 | 1003.8 |
| 20260504011553 | 17 | 0 | 0.0 | 4.8 | 0.00 | 0.00 | 0.00 | 44 | 1003.8 |
| 20260504011046 | 17 | 360 | 0.0 | 4.8 | 0.00 | 0.00 | 0.00 | 43 | 1003.7 |
| 20260504010546 | 17 | 360 | 0.0 | 4.8 | 0.00 | 0.00 | 0.00 | 43 | 1003.8 |
| 20260504010048 | 17 | 360 | 1.6 | 6.4 | 0.00 | 0.00 | 0.00 | 43 | 1003.8 |
| 20260504005547 | 17 | 360 | 1.6 | 6.4 | 0.00 | 0.00 | 0.00 | 43 | 1003.7 |
| 20260504005047 | 17 | 360 | 1.6 | 6.4 | 0.00 | 0.00 | 0.00 | 43 | 1003.7 |
| 20260504004619 | 18 | 360 | 1.6 | 6.4 | 0.00 | 0.00 | 0.00 | 44 | 1003.6 |
| 20260504004049 | 18 | 360 | 3.2 | 8.0 | 0.00 | 0.00 | 0.00 | 44 | 1003.6 |
| 20260504003548 | 18 | 299 | 1.6 | 8.0 | 0.00 | 0.00 | 0.00 | 45 | 1003.5 |
| 20260504003053 | 18 | 292 | 3.2 | 12.9 | 0.00 | 0.00 | 0.00 | 43 | 1003.6 |
| 20260504002544 | 18 | 360 | 4.8 | 12.9 | 0.00 | 0.00 | 0.00 | 44 | 1003.6 |
| 20260504002048 | 18 | 298 | 4.8 | 11.3 | 0.00 | 0.00 | 0.00 | 43 | 1003.6 |
| 20260504001618 | 19 | 300 | 3.2 | 6.4 | 0.00 | 0.00 | 0.00 | 44 | 1003.5 |
| 20260504001047 | 19 | 299 | 3.2 | 9.7 | 0.00 | 0.00 | 0.00 | 44 | 1003.4 |
| 20260504000546 | 20 | 296 | 1.6 | 12.9 | 0.00 | 0.00 | 0.00 | 44 | 1003.4 |
| 20260503235546 | 20 | 282 | 4.8 | 16.1 | 0.00 | 0.00 | 0.00 | 40 | 1003.4 |
| 20260503235047 | 20 | 281 | 4.8 | 16.1 | 0.00 | 0.00 | 0.00 | 40 | 1003.2 |
| 20260503234558 | 20 | 259 | 3.2 | 16.1 | 0.00 | 0.00 | 0.00 | 41 | 1003.1 |
| 20260503234047 | 20 | 288 | 1.6 | 16.1 | 0.00 | 0.00 | 0.00 | 43 | 1003.2 |
| 20260503233549 | 20 | 281 | 4.8 | 16.1 | 0.00 | 0.00 | 0.00 | 42 | 1003.2 |
| 20260503233049 | 20 | 298 | 3.2 | 16.1 | 0.00 | 0.00 | 0.00 | 43 | 1003.3 |
| 20260503232548 | 20 | 286 | 6.4 | 16.1 | 0.00 | 0.00 | 0.00 | 42 | 1003.2 |
| 20260503232048 | 21 | 296 | 4.8 | 12.9 | 0.00 | 0.00 | 0.00 | 42 | 1003.3 |
| 20260503231553 | 21 | 281 | 3.2 | 17.7 | 0.00 | 0.00 | 0.00 | 41 | 1003.3 |
| 20260503231048 | 21 | 283 | 4.8 | 17.7 | 0.00 | 0.00 | 0.00 | 42 | 1003.3 |
| 20260503230548 | 21 | 285 | 4.8 | 17.7 | 0.00 | 0.00 | 0.00 | 43 | 1003.5 |
| 20260503230110 | 21 | 303 | 6.4 | 17.7 | 0.00 | 0.00 | 0.00 | 40 | 1003.4 |
| 20260503225543 | 21 | 284 | 8.0 | 20.9 | 0.00 | 0.00 | 0.00 | 40 | 1003.6 |
| 20260503225047 | 21 | 312 | 11.3 | 22.5 | 0.00 | 0.00 | 0.00 | 40 | 1003.5 |
| 20260503224556 | 21 | 311 | 11.3 | 22.5 | 0.00 | 0.00 | 0.00 | 38 | 1003.6 |
| 20260503224048 | 21 | 295 | 8.0 | 22.5 | 0.00 | 0.00 | 0.00 | 40 | 1003.6 |
| 20260503223549 | 21 | 290 | 9.7 | 20.9 | 0.00 | 0.00 | 0.00 | 44 | 1003.6 |
| 20260503223053 | 21 | 329 | 6.4 | 16.1 | 0.00 | 0.00 | 0.00 | 41 | 1003.6 |
| 20260503222548 | 21 | 273 | 4.8 | 17.7 | 0.00 | 0.00 | 0.00 | 44 | 1003.6 |
| 20260503222048 | 21 | 255 | 8.0 | 20.9 | 0.00 | 0.00 | 0.00 | 44 | 1003.7 |
| 20260503221604 | 21 | 284 | 6.4 | 20.9 | 0.00 | 0.00 | 0.00 | 44 | 1003.8 |
| 20260503221047 | 21 | 277 | 8.0 | 20.9 | 0.00 | 0.00 | 0.00 | 43 | 1003.5 |
| 20260503220548 | 21 | 253 | 3.2 | 17.7 | 0.00 | 0.00 | 0.00 | 41 | 1003.7 |
| 20260503220111 | 21 | 279 | 4.8 | 17.7 | 0.00 | 0.00 | 0.00 | 43 | 1003.7 |
| 20260503215548 | 21 | 277 | 4.8 | 14.5 | 0.00 | 0.00 | 0.00 | 45 | 1003.8 |
| 20260503215048 | 21 | 281 | 8.0 | 16.1 | 0.00 | 0.00 | 0.00 | 43 | 1003.7 |
| 20260503214558 | 21 | 263 | 3.2 | 20.9 | 0.00 | 0.00 | 0.00 | 46 | 1003.8 |
| 20260503214044 | 21 | 286 | 4.8 | 20.9 | 0.00 | 0.00 | 0.00 | 44 | 1003.8 |
| 20260503213549 | 21 | 218 | 6.4 | 19.3 | 0.00 | 0.00 | 0.00 | 45 | 1003.8 |
| 20260503213053 | 21 | 282 | 4.8 | 16.1 | 0.00 | 0.00 | 0.00 | 47 | 1003.8 |
| 20260503212550 | 21 | 297 | 3.2 | 16.1 | 0.00 | 0.00 | 0.00 | 46 | 1003.7 |
| 20260503212046 | 21 | 304 | 4.8 | 14.5 | 0.00 | 0.00 | 0.00 | 43 | 1003.9 |
| 20260503211553 | 21 | 265 | 1.6 | 16.1 | 0.00 | 0.00 | 0.00 | 50 | 1003.9 |
| 20260503211047 | 21 | 264 | 6.4 | 19.3 | 0.00 | 0.00 | 0.00 | 45 | 1004.0 |
| 20260503210548 | 21 | 257 | 6.4 | 19.3 | 0.00 | 0.00 | 0.00 | 47 | 1004.0 |
| 20260503210056 | 21 | 308 | 3.2 | 17.7 | 0.00 | 0.00 | 0.00 | 48 | 1004.1 |
| 20260503205547 | 21 | 284 | 6.4 | 17.7 | 0.00 | 0.00 | 0.00 | 47 | 1004.2 |
| 20260503205048 | 20 | 300 | 4.8 | 17.7 | 0.00 | 0.00 | 0.00 | 49 | 1004.1 |
| 20260503204555 | 20 | 244 | 6.4 | 17.7 | 0.00 | 0.00 | 0.00 | 43 | 1004.1 |
| 20260503204047 | 20 | 226 | 4.8 | 25.7 | 0.00 | 0.00 | 0.00 | 49 | 1004.2 |
| 20260503203544 | 20 | 269 | 8.0 | 25.7 | 0.00 | 0.00 | 0.00 | 49 | 1004.4 |
| 20260503203108 | 20 | 263 | 8.0 | 25.7 | 0.00 | 0.00 | 0.00 | 48 | 1004.6 |
| 20260503202547 | 20 | 247 | 11.3 | 25.7 | 0.00 | 0.00 | 0.00 | 47 | 1004.5 |
| 20260503202048 | 20 | 232 | 11.3 | 25.7 | 0.00 | 0.00 | 0.00 | 46 | 1004.5 |
| 20260503201551 | 20 | 238 | 6.4 | 24.1 | 0.00 | 0.00 | 0.00 | 46 | 1004.5 |
| 20260503201047 | 20 | 279 | 4.8 | 20.9 | 0.00 | 0.00 | 0.00 | 49 | 1004.7 |
| 20260503200548 | 20 | 196 | 8.0 | 17.7 | 0.00 | 0.00 | 0.00 | 46 | 1004.8 |
| 20260503200049 | 20 | 360 | 4.8 | 19.3 | 0.00 | 0.00 | 0.00 | 51 | 1004.8 |
| 20260503195548 | 19 | 266 | 6.4 | 19.3 | 0.00 | 0.00 | 0.00 | 53 | 1005.1 |
| 20260503195047 | 19 | 288 | 9.7 | 20.9 | 0.00 | 0.00 | 0.00 | 50 | 1005.0 |
| 20260503194553 | 19 | 286 | 9.7 | 20.9 | 0.00 | 0.00 | 0.00 | 49 | 1005.2 |
| 20260503194047 | 19 | 263 | 6.4 | 24.1 | 0.00 | 0.00 | 0.00 | 46 | 1005.1 |
| 20260503193547 | 19 | 269 | 8.0 | 24.1 | 0.00 | 0.00 | 0.00 | 51 | 1005.3 |
| 20260503193054 | 18 | 255 | 6.4 | 19.3 | 0.00 | 0.00 | 0.00 | 51 | 1005.4 |
| 20260503192547 | 18 | 360 | 8.0 | 24.1 | 0.00 | 0.00 | 0.00 | 49 | 1005.6 |
| 20260503192047 | 18 | 216 | 8.0 | 29.0 | 0.00 | 0.00 | 0.00 | 51 | 1005.6 |
| 20260503191556 | 18 | 360 | 8.0 | 29.0 | 0.00 | 0.00 | 0.00 | 48 | 1005.6 |
| 20260503191047 | 18 | 360 | 9.7 | 25.7 | 0.00 | 0.00 | 0.00 | 46 | 1005.6 |
| 20260503190546 | 18 | 360 | 6.4 | 25.7 | 0.00 | 0.00 | 0.00 | 49 | 1005.6 |
| 20260503185548 | 18 | 360 | 8.0 | 19.3 | 0.00 | 0.00 | 0.00 | 52 | 1005.5 |
| 20260503185048 | 18 | 360 | 6.4 | 30.6 | 0.00 | 0.00 | 0.00 | 51 | 1005.7 |
| 20260503184549 | 18 | 360 | 8.0 | 30.6 | 0.00 | 0.00 | 0.00 | 52 | 1005.7 |
| 20260503184050 | 17 | 360 | 14.5 | 30.6 | 0.00 | 0.00 | 0.00 | 52 | 1005.8 |
| 20260503183548 | 18 | 360 | 14.5 | 25.7 | 0.00 | 0.00 | 0.00 | 48 | 1005.8 |
| 20260503183053 | 18 | 180 | 8.0 | 32.2 | 0.00 | 0.00 | 0.00 | 51 | 1005.8 |
| 20260503182548 | 18 | 200 | 6.4 | 32.2 | 0.00 | 0.00 | 0.00 | 49 | 1005.8 |
| 20260503182048 | 17 | 360 | 11.3 | 29.0 | 0.00 | 0.00 | 0.00 | 47 | 1005.8 |
| 20260503181559 | 17 | 360 | 11.3 | 27.4 | 0.00 | 0.00 | 0.00 | 50 | 1005.7 |
| 20260503181047 | 18 | 360 | 6.4 | 27.4 | 0.00 | 0.00 | 0.00 | 53 | 1005.7 |
| 20260503180547 | 17 | 360 | 11.3 | 30.6 | 0.00 | 0.00 | 0.00 | 50 | 1005.9 |
| 20260503180054 | 17 | 360 | 6.4 | 30.6 | 0.00 | 0.00 | 0.00 | 52 | 1005.9 |
| 20260503175546 | 17 | 252 | 16.1 | 30.6 | 0.00 | 0.00 | 0.00 | 49 | 1006.0 |
| 20260503175047 | 17 | 192 | 16.1 | 30.6 | 0.00 | 0.00 | 0.00 | 47 | 1006.0 |
| 20260503174550 | 17 | 360 | 11.3 | 27.4 | 0.00 | 0.00 | 0.00 | 51 | 1006.1 |
| 20260503174048 | 17 | 360 | 11.3 | 33.8 | 0.00 | 0.00 | 0.00 | 51 | 1006.2 |
| 20260503173548 | 17 | 360 | 11.3 | 33.8 | 0.00 | 0.00 | 0.00 | 51 | 1006.3 |
| 20260503173050 | 17 | 360 | 14.5 | 29.0 | 0.00 | 0.00 | 0.00 | 49 | 1006.4 |
| 20260503172548 | 17 | 222 | 11.3 | 33.8 | 0.00 | 0.00 | 0.00 | 49 | 1006.4 |
| 20260503172047 | 16 | 360 | 16.1 | 33.8 | 0.00 | 0.00 | 0.00 | 52 | 1006.4 |
| 20260503171549 | 16 | 227 | 12.9 | 29.0 | 0.00 | 0.00 | 0.00 | 51 | 1006.5 |
| 20260503171048 | 16 | 247 | 11.3 | 32.2 | 0.00 | 0.00 | 0.00 | 54 | 1006.5 |
| 20260503170548 | 16 | 360 | 14.5 | 32.2 | 0.00 | 0.00 | 0.00 | 52 | 1006.6 |
| 20260503150546 | 13 | 360 | 14.5 | 32.2 | 0.00 | 0.00 | 0.00 | 62 | 1008.5 |
| 20260503131046 | 10 | 360 | 12.9 | 30.6 | 0.00 | 0.00 | 0.00 | 70 | 1009.6 |
| 20260503130548 | 10 | 360 | 12.9 | 27.4 | 0.00 | 0.00 | 0.00 | 69 | 1009.7 |
| 20260503110548 | 8 | 360 | 3.2 | 17.7 | 0.00 | 0.00 | 0.00 | 59 | 1010.0 |
| 20260503100105 | 9 | 229 | 8.0 | 24.1 | 0.00 | 0.00 | 0.00 | 54 | 1010.2 |
| 20260503081600 | 8 | 360 | 6.4 | 17.7 | 0.00 | 0.00 | 0.00 | 55 | 1011.2 |
| 20260503081048 | 8 | 360 | 4.8 | 17.7 | 0.00 | 0.00 | 0.00 | 55 | 1011.2 |
| 20260503080547 | 8 | 360 | 6.4 | 17.7 | 0.00 | 0.00 | 0.00 | 55 | 1011.3 |
| 20260503072544 | 7 | 360 | 4.8 | 20.9 | 0.00 | 0.00 | 0.00 | 56 | 1011.4 |
| 20260503072048 | 7 | 360 | 3.2 | 12.9 | 0.00 | 0.00 | 0.00 | 56 | 1011.3 |
| 20260503071559 | 7 | 360 | 4.8 | 14.5 | 0.00 | 0.00 | 0.00 | 56 | 1011.4 |
| 20260503071047 | 7 | 261 | 4.8 | 14.5 | 0.00 | 0.00 | 0.00 | 56 | 1011.4 |
| 20260503070550 | 7 | 360 | 1.6 | 12.9 | 0.00 | 0.00 | 0.00 | 56 | 1011.5 |
| 20260503060115 | 8 | 246 | 3.2 | 16.1 | 0.00 | 0.00 | 0.00 | 51 | 1011.9 |
| 20260503055047 | 8 | 259 | 4.8 | 22.5 | 0.00 | 0.00 | 0.00 | 50 | 1012.0 |
| 20260503054602 | 8 | 194 | 3.2 | 16.1 | 0.00 | 0.00 | 0.00 | 51 | 1012.0 |
| 20260503054047 | 8 | 279 | 3.2 | 16.1 | 0.00 | 0.00 | 0.00 | 50 | 1012.0 |
| 20260503053548 | 8 | 225 | 3.2 | 16.1 | 0.00 | 0.00 | 0.00 | 50 | 1012.0 |
| 20260503053052 | 9 | 266 | 3.2 | 19.3 | 0.00 | 0.00 | 0.00 | 50 | 1012.0 |
| 20260503052551 | 9 | 258 | 4.8 | 19.3 | 0.00 | 0.00 | 0.00 | 50 | 1012.1 |
| 20260503052046 | 9 | 242 | 3.2 | 19.3 | 0.00 | 0.00 | 0.00 | 49 | 1012.2 |
| 20260503051555 | 9 | 360 | 4.8 | 19.3 | 0.00 | 0.00 | 0.00 | 49 | 1012.2 |
| 20260503051047 | 9 | 253 | 6.4 | 14.5 | 0.00 | 0.00 | 0.00 | 49 | 1012.3 |
| 20260503050547 | 9 | 218 | 4.8 | 16.1 | 0.00 | 0.00 | 0.00 | 49 | 1012.3 |
| 20260503050053 | 9 | 222 | 4.8 | 16.1 | 0.00 | 0.00 | 0.00 | 48 | 1012.3 |
| 20260503045544 | 8 | 242 | 4.8 | 14.5 | 0.00 | 0.00 | 0.00 | 49 | 1012.3 |
| 20260503045049 | 8 | 227 | 4.8 | 14.5 | 0.00 | 0.00 | 0.00 | 49 | 1012.4 |
| 20260503044557 | 8 | 223 | 6.4 | 14.5 | 0.00 | 0.00 | 0.00 | 49 | 1012.4 |
| 20260503044049 | 8 | 254 | 4.8 | 16.1 | 0.00 | 0.00 | 0.00 | 49 | 1012.4 |
| 20260503043549 | 8 | 174 | 4.8 | 16.1 | 0.00 | 0.00 | 0.00 | 49 | 1012.4 |
| 20260503043055 | 8 | 264 | 4.8 | 16.1 | 0.00 | 0.00 | 0.00 | 49 | 1012.5 |
| 20260503042547 | 8 | 360 | 6.4 | 16.1 | 0.00 | 0.00 | 0.00 | 49 | 1012.5 |
| 20260503042048 | 8 | 228 | 4.8 | 14.5 | 0.00 | 0.00 | 0.00 | 49 | 1012.8 |
| 20260503041553 | 8 | 243 | 3.2 | 12.9 | 0.00 | 0.00 | 0.00 | 49 | 1012.8 |
| 20260503041046 | 8 | 221 | 3.2 | 11.3 | 0.00 | 0.00 | 0.00 | 49 | 1012.9 |
| 20260503040546 | 8 | 360 | 3.2 | 14.5 | 0.00 | 0.00 | 0.00 | 49 | 1012.8 |
| 20260503040055 | 8 | 360 | 3.2 | 14.5 | 0.00 | 0.00 | 0.00 | 50 | 1012.8 |
| 20260503035547 | 8 | 360 | 4.8 | 14.5 | 0.00 | 0.00 | 0.00 | 49 | 1013.0 |
| 20260503035049 | 8 | 221 | 4.8 | 12.9 | 0.00 | 0.00 | 0.00 | 50 | 1013.0 |
| 20260503034552 | 8 | 360 | 1.6 | 14.5 | 0.00 | 0.00 | 0.00 | 51 | 1013.0 |
| 20260503034047 | 8 | 360 | 1.6 | 14.5 | 0.00 | 0.00 | 0.00 | 51 | 1013.1 |
| 20260503033551 | 8 | 236 | 3.2 | 14.5 | 0.00 | 0.00 | 0.00 | 50 | 1013.2 |
| 20260503033058 | 8 | 208 | 1.6 | 12.9 | 0.00 | 0.00 | 0.00 | 50 | 1013.2 |
| 20260503032550 | 8 | 0 | 1.6 | 12.9 | 0.00 | 0.00 | 0.00 | 49 | 1013.2 |
| 20260503032049 | 8 | 0 | 1.6 | 12.9 | 0.00 | 0.00 | 0.00 | 50 | 1013.3 |
| 20260503031555 | 8 | 0 | 3.2 | 16.1 | 0.00 | 0.00 | 0.00 | 49 | 1013.3 |
| 20260503031048 | 8 | 360 | 3.2 | 16.1 | 0.00 | 0.00 | 0.00 | 48 | 1013.3 |
| 20260503030547 | 8 | 360 | 4.8 | 12.9 | 0.00 | 0.00 | 0.00 | 48 | 1013.3 |
| 20260503030100 | 8 | 360 | 3.2 | 12.9 | 0.00 | 0.00 | 0.00 | 48 | 1013.4 |
| 20260503025548 | 8 | 0 | 3.2 | 9.7 | 0.00 | 0.00 | 0.00 | 49 | 1013.5 |
| 20260503025048 | 8 | 360 | 3.2 | 9.7 | 0.00 | 0.00 | 0.00 | 50 | 1013.5 |